| time (UTC) | temp F | wind direction | speed knots | gust knots | rain 1hr in | rain 24hr in | rain mn in | humidity % | barometer mb |
| 20260507065241 | 74 | 167 | 1.7 | 2.6 | 0.00 | 0.00 | 0.00 | 73 | 1014.1 |
| 20260507064739 | 74 | 162 | 3.5 | 5.2 | 0.00 | 0.00 | 0.00 | 73 | 1014.0 |
| 20260507064238 | 74 | 180 | 2.6 | 2.6 | 0.00 | 0.00 | 0.00 | 72 | 1014.2 |
| 20260507063734 | 74 | 214 | 2.6 | 4.3 | 0.00 | 0.00 | 0.00 | 72 | 1014.3 |
| 20260507063231 | 74 | 177 | 2.6 | 4.3 | 0.00 | 0.00 | 0.00 | 71 | 1014.2 |
| 20260507062728 | 74 | 175 | 2.6 | 2.6 | 0.00 | 0.00 | 0.00 | 71 | 1014.5 |
| 20260507062225 | 74 | 186 | 3.5 | 4.3 | 0.00 | 0.00 | 0.00 | 71 | 1014.7 |
| 20260507061723 | 74 | 171 | 4.3 | 5.2 | 0.00 | 0.00 | 0.00 | 71 | 1014.6 |
| 20260507061221 | 74 | 192 | 3.5 | 5.2 | 0.00 | 0.00 | 0.00 | 71 | 1014.9 |
| 20260507060719 | 74 | 165 | 2.6 | 2.6 | 0.00 | 0.00 | 0.00 | 71 | 1015.0 |
| 20260507060215 | 74 | 181 | 3.5 | 5.2 | 0.00 | 0.00 | 0.00 | 72 | 1014.8 |
| 20260507055711 | 75 | 171 | 4.3 | 6.1 | 0.00 | 0.00 | 0.00 | 72 | 1015.1 |
| 20260507055207 | 75 | 187 | 4.3 | 6.1 | 0.00 | 0.00 | 0.00 | 72 | 1015.1 |
| 20260507054703 | 75 | 182 | 3.5 | 5.2 | 0.00 | 0.00 | 0.00 | 71 | 1015.1 |
| 20260507054200 | 75 | 140 | 2.6 | 2.6 | 0.00 | 0.00 | 0.00 | 71 | 1015.2 |
| 20260507053658 | 75 | 179 | 4.3 | 5.2 | 0.00 | 0.00 | 0.00 | 70 | 1015.3 |
| 20260507053156 | 75 | 124 | 3.5 | 5.2 | 0.00 | 0.00 | 0.00 | 71 | 1015.3 |
| 20260507052654 | 75 | 168 | 4.3 | 6.1 | 0.00 | 0.00 | 0.00 | 71 | 1015.5 |
| 20260507052150 | 75 | 180 | 4.3 | 5.2 | 0.00 | 0.00 | 0.00 | 72 | 1015.8 |
| 20260507051648 | 75 | 156 | 4.3 | 4.3 | 0.00 | 0.00 | 0.00 | 73 | 1015.7 |
| 20260507051144 | 75 | 156 | 3.5 | 4.3 | 0.00 | 0.00 | 0.00 | 73 | 1015.6 |
| 20260507050641 | 75 | 189 | 1.7 | 2.6 | 0.00 | 0.00 | 0.00 | 73 | 1015.6 |
| 20260507050138 | 75 | 190 | 4.3 | 6.1 | 0.00 | 0.00 | 0.00 | 74 | 1015.5 |
| 20260507045635 | 75 | 182 | 3.5 | 4.3 | 0.00 | 0.00 | 0.00 | 74 | 1015.5 |
| 20260507045132 | 75 | 192 | 3.5 | 5.2 | 0.00 | 0.00 | 0.00 | 75 | 1015.5 |
| 20260507044629 | 75 | 131 | 4.3 | 5.2 | 0.00 | 0.00 | 0.00 | 74 | 1015.3 |
| 20260507044125 | 75 | 189 | 2.6 | 4.3 | 0.00 | 0.00 | 0.00 | 74 | 1015.5 |
| 20260507043621 | 75 | 237 | 4.3 | 5.2 | 0.00 | 0.00 | 0.00 | 75 | 1015.4 |
| 20260507043119 | 75 | 193 | 7.0 | 7.8 | 0.00 | 0.00 | 0.00 | 74 | 1015.3 |
| 20260507042614 | 75 | 180 | 7.0 | 7.8 | 0.00 | 0.00 | 0.00 | 74 | 1015.3 |
| 20260507042110 | 75 | 146 | 4.3 | 6.1 | 0.00 | 0.00 | 0.00 | 73 | 1015.6 |
| 20260507041607 | 76 | 160 | 5.2 | 7.0 | 0.00 | 0.00 | 0.00 | 71 | 1015.6 |
| 20260507041104 | 76 | 189 | 4.3 | 6.1 | 0.00 | 0.00 | 0.00 | 67 | 1015.6 |
| 20260507040601 | 76 | 178 | 7.0 | 7.8 | 0.00 | 0.00 | 0.00 | 65 | 1015.6 |
| 20260507040057 | 76 | 182 | 2.6 | 2.6 | 0.00 | 0.00 | 0.00 | 65 | 1015.7 |
| 20260507035553 | 76 | 180 | 3.5 | 4.3 | 0.00 | 0.00 | 0.00 | 65 | 1015.8 |
| 20260507035049 | 76 | 170 | 2.6 | 2.6 | 0.00 | 0.00 | 0.00 | 65 | 1015.8 |
| 20260507034546 | 76 | 183 | 4.3 | 7.0 | 0.00 | 0.00 | 0.00 | 64 | 1015.9 |
| 20260507034044 | 76 | 175 | 2.6 | 2.6 | 0.00 | 0.00 | 0.00 | 64 | 1016.1 |
| 20260507033542 | 76 | 207 | 6.1 | 8.7 | 0.00 | 0.00 | 0.00 | 64 | 1015.9 |
| 20260507033039 | 76 | 175 | 6.1 | 7.8 | 0.00 | 0.00 | 0.00 | 64 | 1015.9 |
| 20260507032536 | 76 | 160 | 3.5 | 5.2 | 0.00 | 0.00 | 0.00 | 64 | 1015.9 |
| 20260507032032 | 76 | 186 | 3.5 | 4.3 | 0.00 | 0.00 | 0.00 | 64 | 1015.8 |
| 20260507031528 | 76 | 160 | 4.3 | 6.1 | 0.00 | 0.00 | 0.00 | 64 | 1016.0 |
| 20260507031026 | 76 | 165 | 4.3 | 6.1 | 0.00 | 0.00 | 0.00 | 64 | 1015.8 |
| 20260507030522 | 76 | 186 | 3.5 | 5.2 | 0.00 | 0.00 | 0.00 | 65 | 1016.0 |
| 20260507030020 | 76 | 195 | 5.2 | 6.1 | 0.00 | 0.00 | 0.00 | 65 | 1015.8 |
| 20260507025517 | 76 | 207 | 3.5 | 5.2 | 0.00 | 0.00 | 0.00 | 65 | 1015.7 |
| 20260507025014 | 76 | 156 | 1.7 | 1.7 | 0.00 | 0.00 | 0.00 | 65 | 1016.0 |
| 20260507024512 | 76 | 178 | 4.3 | 6.1 | 0.00 | 0.00 | 0.00 | 65 | 1015.8 |
| 20260507024009 | 76 | 196 | 4.3 | 5.2 | 0.00 | 0.00 | 0.00 | 65 | 1015.5 |
| 20260507023504 | 76 | 195 | 4.3 | 6.1 | 0.00 | 0.00 | 0.00 | 65 | 1015.9 |
| 20260507023002 | 76 | 189 | 6.1 | 8.7 | 0.00 | 0.00 | 0.00 | 66 | 1015.7 |
| 20260507022459 | 76 | 186 | 4.3 | 6.1 | 0.00 | 0.00 | 0.00 | 67 | 1015.9 |
| 20260507021954 | 76 | 213 | 2.6 | 2.6 | 0.00 | 0.00 | 0.00 | 68 | 1015.7 |
| 20260507021450 | 76 | 199 | 4.3 | 5.2 | 0.00 | 0.00 | 0.00 | 68 | 1015.8 |
| 20260507020947 | 76 | 182 | 3.5 | 4.3 | 0.00 | 0.00 | 0.00 | 68 | 1015.7 |
| 20260507020444 | 76 | 186 | 4.3 | 5.2 | 0.00 | 0.00 | 0.00 | 68 | 1015.5 |
| 20260507015941 | 76 | 218 | 2.6 | 4.3 | 0.00 | 0.00 | 0.00 | 69 | 1015.8 |
| 20260507015440 | 76 | 197 | 3.5 | 4.3 | 0.00 | 0.00 | 0.00 | 69 | 1015.6 |
| 20260507014936 | 76 | 189 | 7.0 | 8.7 | 0.00 | 0.00 | 0.00 | 70 | 1015.6 |
| 20260507014433 | 76 | 204 | 2.6 | 4.3 | 0.00 | 0.00 | 0.00 | 72 | 1015.7 |
| 20260507013929 | 76 | 165 | 5.2 | 6.1 | 0.00 | 0.00 | 0.00 | 76 | 1015.8 |
| 20260507013426 | 76 | 217 | 2.6 | 5.2 | 0.00 | 0.00 | 0.00 | 78 | 1015.7 |
| 20260507012923 | 75 | 195 | 6.1 | 7.0 | 0.00 | 0.00 | 0.00 | 80 | 1015.8 |
| 20260507012420 | 75 | 182 | 8.7 | 9.6 | 0.00 | 0.00 | 0.00 | 81 | 1015.7 |
| 20260507011917 | 75 | 188 | 5.2 | 7.8 | 0.00 | 0.00 | 0.00 | 82 | 1015.7 |
| 20260507011414 | 75 | 182 | 7.8 | 7.8 | 0.00 | 0.00 | 0.00 | 83 | 1015.7 |
| 20260507010913 | 75 | 189 | 7.0 | 7.8 | 0.00 | 0.00 | 0.00 | 83 | 1015.5 |
| 20260507010409 | 75 | 160 | 2.6 | 5.2 | 0.00 | 0.00 | 0.00 | 83 | 1015.6 |
| 20260507005907 | 75 | 201 | 7.0 | 9.6 | 0.00 | 0.00 | 0.00 | 84 | 1015.5 |
| 20260507005403 | 75 | 188 | 6.1 | 8.7 | 0.00 | 0.00 | 0.00 | 84 | 1015.5 |
| 20260507004900 | 75 | 189 | 4.3 | 6.1 | 0.00 | 0.00 | 0.00 | 85 | 1015.7 |
| 20260507004357 | 75 | 204 | 6.1 | 7.0 | 0.00 | 0.00 | 0.00 | 85 | 1015.5 |
| 20260507003854 | 75 | 158 | 6.1 | 7.8 | 0.00 | 0.00 | 0.00 | 85 | 1015.6 |
| 20260507003349 | 75 | 170 | 6.1 | 7.8 | 0.00 | 0.00 | 0.00 | 86 | 1015.5 |
| 20260507002845 | 75 | 173 | 7.0 | 7.8 | 0.00 | 0.00 | 0.00 | 85 | 1015.0 |
| 20260507002341 | 75 | 125 | 5.2 | 7.0 | 0.00 | 0.00 | 0.00 | 85 | 1015.3 |
| 20260507001838 | 75 | 185 | 9.6 | 12.2 | 0.00 | 0.00 | 0.00 | 86 | 1015.3 |
| 20260507001335 | 75 | 162 | 5.2 | 7.0 | 0.00 | 0.00 | 0.00 | 86 | 1015.2 |
| 20260507000832 | 75 | 175 | 4.3 | 5.2 | 0.00 | 0.00 | 0.00 | 86 | 1015.1 |
| 20260507000328 | 75 | 158 | 7.8 | 8.7 | 0.00 | 0.00 | 0.00 | 86 | 1015.2 |
| 20260506235824 | 75 | 189 | 8.7 | 9.6 | 0.00 | 0.00 | 0.00 | 86 | 1015.0 |
| 20260506235320 | 75 | 169 | 5.2 | 7.8 | 0.00 | 0.00 | 0.00 | 85 | 1014.8 |
| 20260506234817 | 76 | 168 | 9.6 | 13.0 | 0.00 | 0.00 | 0.00 | 85 | 1014.9 |
| 20260506234315 | 76 | 190 | 8.7 | 9.6 | 0.00 | 0.00 | 0.00 | 85 | 1015.0 |
| 20260506233812 | 76 | 177 | 7.8 | 8.7 | 0.00 | 0.00 | 0.00 | 84 | 1014.9 |
| 20260506233308 | 76 | 176 | 10.4 | 11.3 | 0.00 | 0.00 | 0.00 | 84 | 1014.9 |
| 20260506232805 | 76 | 114 | 10.4 | 13.0 | 0.00 | 0.00 | 0.00 | 83 | 1014.9 |
| 20260506232300 | 76 | 136 | 7.0 | 8.7 | 0.00 | 0.00 | 0.00 | 83 | 1014.8 |
| 20260506231757 | 76 | 198 | 9.6 | 12.2 | 0.00 | 0.00 | 0.00 | 83 | 1014.9 |
| 20260506231255 | 77 | 158 | 7.8 | 8.7 | 0.00 | 0.00 | 0.00 | 82 | 1014.6 |
| 20260506230752 | 77 | 171 | 8.7 | 12.2 | 0.00 | 0.00 | 0.00 | 81 | 1015.0 |
| 20260506230249 | 77 | 202 | 7.8 | 11.3 | 0.00 | 0.00 | 0.00 | 81 | 1014.9 |
| 20260506225745 | 77 | 188 | 7.8 | 7.8 | 0.00 | 0.00 | 0.00 | 80 | 1014.9 |
| 20260506225243 | 77 | 151 | 9.6 | 12.2 | 0.00 | 0.00 | 0.00 | 80 | 1015.1 |
| 20260506224738 | 77 | 204 | 7.8 | 8.7 | 0.00 | 0.00 | 0.00 | 80 | 1014.8 |
| 20260506224236 | 77 | 204 | 8.7 | 11.3 | 0.00 | 0.00 | 0.00 | 80 | 1015.2 |
| 20260506223732 | 77 | 192 | 7.8 | 11.3 | 0.00 | 0.00 | 0.00 | 80 | 1015.0 |
| 20260506223228 | 77 | 188 | 8.7 | 8.7 | 0.00 | 0.00 | 0.00 | 80 | 1015.0 |
| 20260506222725 | 77 | 167 | 8.7 | 9.6 | 0.00 | 0.00 | 0.00 | 80 | 1015.1 |
| 20260506222220 | 78 | 179 | 8.7 | 11.3 | 0.00 | 0.00 | 0.00 | 79 | 1015.2 |
| 20260506221719 | 78 | 190 | 7.0 | 7.8 | 0.00 | 0.00 | 0.00 | 79 | 1015.2 |
| 20260506221217 | 78 | 181 | 8.7 | 9.6 | 0.00 | 0.00 | 0.00 | 79 | 1015.1 |
| 20260506220714 | 78 | 175 | 6.1 | 7.8 | 0.00 | 0.00 | 0.00 | 80 | 1015.3 |
| 20260506220208 | 78 | 198 | 7.0 | 8.7 | 0.00 | 0.00 | 0.00 | 79 | 1014.9 |
| 20260506215705 | 78 | 163 | 6.1 | 7.8 | 0.00 | 0.00 | 0.00 | 79 | 1015.0 |
| 20260506215201 | 78 | 170 | 7.0 | 7.8 | 0.00 | 0.00 | 0.00 | 80 | 1014.9 |
| 20260506214658 | 78 | 186 | 4.3 | 6.1 | 0.00 | 0.00 | 0.00 | 81 | 1015.0 |
| 20260506214155 | 78 | 150 | 7.8 | 9.6 | 0.00 | 0.00 | 0.00 | 80 | 1015.1 |
| 20260506213654 | 78 | 167 | 9.6 | 13.0 | 0.00 | 0.00 | 0.00 | 80 | 1014.9 |
| 20260506213150 | 78 | 180 | 5.2 | 6.1 | 0.00 | 0.00 | 0.00 | 79 | 1015.0 |
| 20260506212647 | 79 | 134 | 4.3 | 5.2 | 0.00 | 0.00 | 0.00 | 80 | 1015.0 |
| 20260506212142 | 78 | 113 | 3.5 | 5.2 | 0.00 | 0.00 | 0.00 | 80 | 1014.9 |
| 20260506211638 | 79 | 181 | 4.3 | 5.2 | 0.00 | 0.00 | 0.00 | 80 | 1015.0 |
| 20260506211135 | 79 | 117 | 4.3 | 5.2 | 0.00 | 0.00 | 0.00 | 79 | 1015.1 |
| 20260506210632 | 78 | 159 | 3.5 | 4.3 | 0.00 | 0.00 | 0.00 | 80 | 1015.3 |
| 20260506210128 | 79 | 129 | 6.1 | 7.0 | 0.00 | 0.00 | 0.00 | 80 | 1015.0 |
| 20260506205625 | 79 | 146 | 4.3 | 6.1 | 0.00 | 0.00 | 0.00 | 79 | 1015.1 |
| 20260506205120 | 80 | 104 | 3.5 | 4.3 | 0.00 | 0.00 | 0.00 | 78 | 1015.1 |
| 20260506204619 | 80 | 162 | 4.3 | 7.8 | 0.00 | 0.00 | 0.00 | 78 | 1015.2 |
| 20260506204115 | 79 | 112 | 3.5 | 5.2 | 0.00 | 0.00 | 0.00 | 78 | 1015.3 |
| 20260506203614 | 79 | 131 | 5.2 | 6.1 | 0.00 | 0.00 | 0.00 | 79 | 1015.1 |
| 20260506203109 | 79 | 131 | 5.2 | 6.1 | 0.00 | 0.00 | 0.00 | 77 | 1015.2 |
| 20260506202608 | 79 | 106 | 4.3 | 5.2 | 0.00 | 0.00 | 0.00 | 79 | 1015.3 |
| 20260506202103 | 78 | 130 | 6.1 | 7.8 | 0.00 | 0.00 | 0.00 | 79 | 1015.3 |
| 20260506201601 | 78 | 129 | 6.1 | 7.8 | 0.00 | 0.00 | 0.00 | 79 | 1015.4 |
| 20260506201058 | 79 | 106 | 5.2 | 6.1 | 0.00 | 0.00 | 0.00 | 78 | 1015.5 |
| 20260506200554 | 78 | 101 | 6.1 | 7.8 | 0.00 | 0.00 | 0.00 | 78 | 1015.6 |
| 20260506200051 | 78 | 92 | 7.0 | 8.7 | 0.00 | 0.00 | 0.00 | 79 | 1015.7 |
| 20260506195547 | 78 | 107 | 7.0 | 7.8 | 0.00 | 0.00 | 0.00 | 79 | 1015.9 |
| 20260506195044 | 79 | 129 | 7.0 | 7.8 | 0.00 | 0.00 | 0.00 | 78 | 1015.7 |
| 20260506194542 | 78 | 108 | 6.1 | 7.0 | 0.00 | 0.00 | 0.00 | 79 | 1015.7 |
| 20260506194038 | 78 | 98 | 7.8 | 8.7 | 0.00 | 0.00 | 0.00 | 80 | 1015.6 |
| 20260506193535 | 78 | 109 | 5.2 | 6.1 | 0.00 | 0.00 | 0.00 | 80 | 1016.0 |
| 20260506193032 | 78 | 82 | 8.7 | 11.3 | 0.00 | 0.00 | 0.00 | 80 | 1016.0 |
| 20260506192529 | 78 | 117 | 8.7 | 8.7 | 0.00 | 0.00 | 0.00 | 79 | 1016.0 |
| 20260506192025 | 78 | 142 | 7.8 | 9.6 | 0.00 | 0.00 | 0.00 | 80 | 1016.2 |
| 20260506191522 | 78 | 73 | 7.0 | 7.8 | 0.00 | 0.00 | 0.00 | 79 | 1016.2 |
| 20260506191018 | 78 | 111 | 7.0 | 8.7 | 0.00 | 0.00 | 0.00 | 79 | 1016.2 |
| 20260506190515 | 78 | 182 | 6.1 | 7.0 | 0.00 | 0.00 | 0.00 | 79 | 1016.3 |
| 20260506190012 | 77 | 126 | 5.2 | 7.0 | 0.00 | 0.00 | 0.00 | 80 | 1016.5 |
| 20260506185509 | 77 | 92 | 7.8 | 8.7 | 0.00 | 0.00 | 0.00 | 80 | 1016.4 |
| 20260506185006 | 77 | 143 | 9.6 | 9.6 | 0.00 | 0.00 | 0.00 | 80 | 1016.4 |
| 20260506184503 | 77 | 103 | 9.6 | 11.3 | 0.00 | 0.00 | 0.00 | 79 | 1016.5 |
| 20260506184000 | 77 | 77 | 8.7 | 9.6 | 0.00 | 0.00 | 0.00 | 79 | 1016.5 |
| 20260506183456 | 78 | 100 | 8.7 | 8.7 | 0.00 | 0.00 | 0.00 | 79 | 1016.6 |
| 20260506182953 | 77 | 146 | 9.6 | 12.2 | 0.00 | 0.00 | 0.00 | 78 | 1016.6 |
| 20260506182450 | 77 | 97 | 8.7 | 9.6 | 0.00 | 0.00 | 0.00 | 79 | 1016.7 |
| 20260506181947 | 77 | 98 | 7.0 | 7.8 | 0.00 | 0.00 | 0.00 | 79 | 1016.7 |
| 20260506181445 | 77 | 124 | 8.7 | 9.6 | 0.00 | 0.00 | 0.00 | 78 | 1016.7 |
| 20260506180942 | 77 | 130 | 7.8 | 9.6 | 0.00 | 0.00 | 0.00 | 78 | 1017.0 |
| 20260506180438 | 77 | 137 | 8.7 | 8.7 | 0.00 | 0.00 | 0.00 | 78 | 1016.9 |
| 20260506175935 | 78 | 108 | 7.8 | 8.7 | 0.00 | 0.00 | 0.00 | 78 | 1017.0 |
| 20260506175432 | 78 | 123 | 8.7 | 9.6 | 0.00 | 0.00 | 0.00 | 77 | 1017.0 |
| 20260506174928 | 77 | 112 | 6.1 | 8.7 | 0.00 | 0.00 | 0.00 | 78 | 1017.1 |
| 20260506174426 | 77 | 121 | 7.8 | 9.6 | 0.00 | 0.00 | 0.00 | 77 | 1017.1 |
| 20260506173923 | 77 | 158 | 7.8 | 8.7 | 0.00 | 0.00 | 0.00 | 77 | 1017.3 |
| 20260506173420 | 77 | 122 | 7.0 | 7.8 | 0.00 | 0.00 | 0.00 | 77 | 1017.3 |
| 20260506172917 | 78 | 104 | 8.7 | 9.6 | 0.00 | 0.00 | 0.00 | 76 | 1017.2 |
| 20260506172414 | 77 | 93 | 7.0 | 8.7 | 0.00 | 0.00 | 0.00 | 77 | 1017.6 |
| 20260506171911 | 77 | 101 | 9.6 | 11.3 | 0.00 | 0.00 | 0.00 | 76 | 1017.6 |
| 20260506171408 | 77 | 92 | 7.8 | 8.7 | 0.00 | 0.00 | 0.00 | 76 | 1017.5 |
| 20260506170906 | 77 | 106 | 7.8 | 8.7 | 0.00 | 0.00 | 0.00 | 76 | 1017.3 |
| 20260506170401 | 78 | 119 | 7.8 | 8.7 | 0.00 | 0.00 | 0.00 | 76 | 1017.7 |
| 20260506165855 | 78 | 108 | 6.1 | 7.8 | 0.00 | 0.00 | 0.00 | 76 | 1017.6 |
| 20260506165353 | 78 | 143 | 6.1 | 7.0 | 0.00 | 0.00 | 0.00 | 76 | 1017.9 |
| 20260506164849 | 78 | 120 | 6.1 | 7.8 | 0.00 | 0.00 | 0.00 | 75 | 1017.6 |
| 20260506164345 | 78 | 145 | 7.0 | 8.7 | 0.00 | 0.00 | 0.00 | 75 | 1017.7 |
| 20260506163843 | 77 | 124 | 6.1 | 6.1 | 0.00 | 0.00 | 0.00 | 75 | 1018.0 |
| 20260506163338 | 78 | 107 | 7.8 | 11.3 | 0.00 | 0.00 | 0.00 | 75 | 1018.0 |
| 20260506162833 | 77 | 133 | 7.0 | 7.8 | 0.00 | 0.00 | 0.00 | 76 | 1017.9 |
| 20260506162332 | 78 | 107 | 6.1 | 7.0 | 0.00 | 0.00 | 0.00 | 76 | 1018.0 |
| 20260506161829 | 77 | 120 | 7.8 | 9.6 | 0.00 | 0.00 | 0.00 | 76 | 1018.0 |
| 20260506161326 | 77 | 115 | 5.2 | 6.1 | 0.00 | 0.00 | 0.00 | 76 | 1018.1 |
| 20260506160823 | 78 | 170 | 6.1 | 7.8 | 0.00 | 0.00 | 0.00 | 75 | 1018.1 |
| 20260506160319 | 78 | 137 | 6.1 | 7.0 | 0.00 | 0.00 | 0.00 | 74 | 1018.0 |
| 20260506155818 | 78 | 157 | 3.5 | 5.2 | 0.00 | 0.00 | 0.00 | 74 | 1018.1 |
| 20260506155314 | 78 | 137 | 6.1 | 7.0 | 0.00 | 0.00 | 0.00 | 73 | 1017.9 |
| 20260506153427 | 77 | 115 | 6.1 | 6.1 | 0.00 | 0.00 | 0.00 | 74 | 1018.0 |
| 20260506152925 | 78 | 102 | 7.0 | 9.6 | 0.00 | 0.00 | 0.00 | 74 | 1017.8 |
| 20260506152421 | 78 | 131 | 6.1 | 7.0 | 0.00 | 0.00 | 0.00 | 73 | 1017.8 |
| 20260506151920 | 77 | 146 | 4.3 | 6.1 | 0.00 | 0.00 | 0.00 | 74 | 1017.7 |
| 20260506151416 | 78 | 136 | 8.7 | 9.6 | 0.00 | 0.00 | 0.00 | 72 | 1018.0 |
| 20260506150914 | 78 | 128 | 5.2 | 6.1 | 0.00 | 0.00 | 0.00 | 72 | 1017.6 |
| 20260506150410 | 80 | 106 | 4.3 | 6.1 | 0.00 | 0.00 | 0.00 | 65 | 1017.7 |
| 20260506145907 | 81 | 147 | 2.6 | 2.6 | 0.00 | 0.00 | 0.00 | 59 | 1017.8 |
| 20260506145403 | 80 | 108 | 4.3 | 6.1 | 0.00 | 0.00 | 0.00 | 63 | 1017.7 |
| 20260506144901 | 81 | 181 | 5.2 | 6.1 | 0.00 | 0.00 | 0.00 | 57 | 1017.9 |
| 20260506144357 | 80 | 160 | 4.3 | 4.3 | 0.00 | 0.00 | 0.00 | 60 | 1017.8 |
| 20260506143856 | 80 | 188 | 5.2 | 7.0 | 0.00 | 0.00 | 0.00 | 63 | 1017.8 |
| 20260506143352 | 80 | 208 | 4.3 | 5.2 | 0.00 | 0.00 | 0.00 | 60 | 1017.9 |
| 20260506142851 | 80 | 173 | 3.5 | 4.3 | 0.00 | 0.00 | 0.00 | 61 | 1017.7 |
| 20260506142348 | 79 | 191 | 4.3 | 6.1 | 0.00 | 0.00 | 0.00 | 63 | 1017.9 |
| 20260506141847 | 78 | 148 | 2.6 | 2.6 | 0.00 | 0.00 | 0.00 | 69 | 1017.7 |
| 20260506141344 | 78 | 181 | 4.3 | 6.1 | 0.00 | 0.00 | 0.00 | 69 | 1017.6 |
| 20260506140842 | 77 | 180 | 4.3 | 6.1 | 0.00 | 0.00 | 0.00 | 72 | 1017.7 |
| 20260506140339 | 77 | 188 | 7.8 | 9.6 | 0.00 | 0.00 | 0.00 | 70 | 1017.5 |
| 20260506135836 | 77 | 182 | 5.2 | 6.1 | 0.00 | 0.00 | 0.00 | 72 | 1017.8 |
| 20260506135332 | 77 | 198 | 6.1 | 7.0 | 0.00 | 0.00 | 0.00 | 72 | 1017.7 |
| 20260506134828 | 76 | 157 | 3.5 | 4.3 | 0.00 | 0.00 | 0.00 | 73 | 1017.7 |
| 20260506134325 | 75 | 173 | 6.1 | 7.0 | 0.00 | 0.00 | 0.00 | 73 | 1017.7 |
| 20260506133822 | 75 | 99 | 4.3 | 7.0 | 0.00 | 0.00 | 0.00 | 73 | 1017.8 |
| 20260506133319 | 75 | 192 | 6.1 | 7.0 | 0.00 | 0.00 | 0.00 | 73 | 1017.7 |
| 20260506132816 | 75 | 167 | 5.2 | 6.1 | 0.00 | 0.00 | 0.00 | 73 | 1017.6 |
| 20260506132313 | 75 | 210 | 5.2 | 7.0 | 0.00 | 0.00 | 0.00 | 74 | 1017.6 |
| 20260506131811 | 75 | 146 | 4.3 | 6.1 | 0.00 | 0.00 | 0.00 | 74 | 1017.6 |
| 20260506131307 | 75 | 184 | 6.1 | 7.0 | 0.00 | 0.00 | 0.00 | 72 | 1017.7 |
| 20260506130804 | 75 | 114 | 4.3 | 5.2 | 0.00 | 0.00 | 0.00 | 70 | 1017.7 |
| 20260506130300 | 75 | 178 | 4.3 | 7.0 | 0.00 | 0.00 | 0.00 | 70 | 1017.5 |
| 20260506125759 | 75 | 167 | 4.3 | 5.2 | 0.00 | 0.00 | 0.00 | 70 | 1017.6 |
| 20260506125256 | 75 | 187 | 3.5 | 5.2 | 0.00 | 0.00 | 0.00 | 70 | 1017.6 |
| 20260506124755 | 75 | 199 | 2.6 | 5.2 | 0.00 | 0.00 | 0.00 | 69 | 1017.4 |
| 20260506124252 | 74 | 205 | 2.6 | 2.6 | 0.00 | 0.00 | 0.00 | 70 | 1017.5 |
| 20260506123749 | 74 | 94 | 5.2 | 7.0 | 0.00 | 0.00 | 0.00 | 70 | 1017.5 |
| 20260506123248 | 73 | 179 | 3.5 | 4.3 | 0.00 | 0.00 | 0.00 | 71 | 1017.4 |
| 20260506122744 | 73 | 179 | 1.7 | 2.6 | 0.00 | 0.00 | 0.00 | 71 | 1017.5 |
| 20260506122241 | 73 | 170 | 2.6 | 4.3 | 0.00 | 0.00 | 0.00 | 72 | 1017.2 |
| 20260506121739 | 73 | 190 | 3.5 | 5.2 | 0.00 | 0.00 | 0.00 | 71 | 1017.3 |
| 20260506121236 | 73 | 175 | 0.9 | 0.9 | 0.00 | 0.00 | 0.00 | 72 | 1017.3 |
| 20260506120733 | 72 | 175 | 1.7 | 2.6 | 0.00 | 0.00 | 0.00 | 73 | 1017.2 |
| 20260506120231 | 72 | 164 | 2.6 | 2.6 | 0.00 | 0.00 | 0.00 | 73 | 1017.3 |
| 20260506115729 | 71 | 180 | 2.6 | 2.6 | 0.00 | 0.00 | 0.00 | 74 | 1017.3 |
| 20260506115227 | 71 | 213 | 2.6 | 2.6 | 0.00 | 0.00 | 0.00 | 75 | 1017.0 |
| 20260506114724 | 71 | 167 | 1.7 | 1.7 | 0.00 | 0.00 | 0.00 | 75 | 1017.1 |
| 20260506114221 | 70 | 175 | 2.6 | 4.3 | 0.00 | 0.00 | 0.00 | 76 | 1017.1 |
| 20260506113720 | 70 | 208 | 2.6 | 1.7 | 0.00 | 0.00 | 0.00 | 76 | 1017.0 |
| 20260506113217 | 70 | 187 | 0.9 | 0.9 | 0.00 | 0.00 | 0.00 | 76 | 1016.8 |
| 20260506112713 | 69 | 197 | 3.5 | 4.3 | 0.00 | 0.00 | 0.00 | 76 | 1016.8 |
| 20260506112211 | 69 | 182 | 0.9 | 0.9 | 0.00 | 0.00 | 0.00 | 77 | 1016.8 |
| 20260506111708 | 69 | 173 | 1.7 | 1.7 | 0.00 | 0.00 | 0.00 | 77 | 1016.4 |
| 20260506111206 | 69 | 148 | 0.9 | 0.9 | 0.00 | 0.00 | 0.00 | 78 | 1016.6 |
| 20260506110703 | 68 | 155 | 0.9 | 0.9 | 0.00 | 0.00 | 0.00 | 78 | 1016.4 |
| 20260506110200 | 68 | 130 | 0.9 | 0.9 | 0.00 | 0.00 | 0.00 | 78 | 1016.4 |
| 20260506105657 | 68 | 172 | 0.9 | 0.9 | 0.00 | 0.00 | 0.00 | 78 | 1016.1 |
| 20260506105154 | 68 | 185 | 0.9 | 0.9 | 0.00 | 0.00 | 0.00 | 78 | 1016.4 |
| 20260506104652 | 68 | 196 | 1.7 | 2.6 | 0.00 | 0.00 | 0.00 | 78 | 1016.6 |
| 20260506104149 | 68 | 207 | 1.7 | 1.7 | 0.00 | 0.00 | 0.00 | 78 | 1016.5 |
| 20260506103646 | 68 | 195 | 0.9 | 0.9 | 0.00 | 0.00 | 0.00 | 78 | 1016.6 |
| 20260506103143 | 68 | 232 | 1.7 | 1.7 | 0.00 | 0.00 | 0.00 | 77 | 1016.7 |
| 20260506102641 | 68 | 180 | 1.7 | 0.9 | 0.00 | 0.00 | 0.00 | 77 | 1016.6 |
| 20260506102138 | 68 | 210 | 1.7 | 2.6 | 0.00 | 0.00 | 0.00 | 77 | 1016.4 |
| 20260506101635 | 68 | 154 | 0.0 | 0.9 | 0.00 | 0.00 | 0.00 | 76 | 1016.3 |
| 20260506101132 | 68 | 132 | 0.0 | 0.0 | 0.00 | 0.00 | 0.00 | 76 | 1016.4 |
| 20260506100631 | 68 | 186 | 0.9 | 0.9 | 0.00 | 0.00 | 0.00 | 76 | 1016.5 |
| 20260506100128 | 68 | 155 | 2.6 | 1.7 | 0.00 | 0.00 | 0.00 | 76 | 1016.5 |
| 20260506095627 | 68 | 179 | 0.0 | 0.9 | 0.00 | 0.00 | 0.00 | 75 | 1016.4 |
| 20260506095123 | 68 | 144 | 0.9 | 0.9 | 0.00 | 0.00 | 0.00 | 75 | 1016.3 |
| 20260506094620 | 68 | 181 | 1.7 | 2.6 | 0.00 | 0.00 | 0.00 | 75 | 1016.3 |
| 20260506094118 | 68 | 179 | 1.7 | 1.7 | 0.00 | 0.00 | 0.00 | 75 | 1016.3 |
| 20260506093616 | 68 | 162 | 0.9 | 0.9 | 0.00 | 0.00 | 0.00 | 75 | 1016.2 |
| 20260506093113 | 68 | 171 | 1.7 | 1.7 | 0.00 | 0.00 | 0.00 | 75 | 1016.3 |
| 20260506092611 | 68 | 154 | 1.7 | 1.7 | 0.00 | 0.00 | 0.00 | 75 | 1016.1 |
| 20260506092108 | 68 | 173 | 0.9 | 0.9 | 0.00 | 0.00 | 0.00 | 75 | 1016.1 |
| 20260506091606 | 68 | 168 | 1.7 | 1.7 | 0.00 | 0.00 | 0.00 | 75 | 1016.0 |
| 20260506091103 | 68 | 206 | 1.7 | 2.6 | 0.00 | 0.00 | 0.00 | 75 | 1016.0 |
| 20260506090601 | 68 | 186 | 2.6 | 1.7 | 0.00 | 0.00 | 0.00 | 75 | 1016.2 |
| 20260506090057 | 68 | 194 | 0.9 | 1.7 | 0.00 | 0.00 | 0.00 | 75 | 1016.1 |
| 20260506085554 | 68 | 231 | 2.6 | 2.6 | 0.00 | 0.00 | 0.00 | 74 | 1016.3 |
| 20260506085050 | 68 | 121 | 0.0 | 0.0 | 0.00 | 0.00 | 0.00 | 74 | 1016.1 |
| 20260506084547 | 68 | 170 | 0.9 | 0.9 | 0.00 | 0.00 | 0.00 | 74 | 1016.3 |
| 20260506084043 | 68 | 161 | 0.0 | 0.0 | 0.00 | 0.00 | 0.00 | 74 | 1016.2 |
| 20260506083541 | 68 | 166 | 0.9 | 1.7 | 0.00 | 0.00 | 0.00 | 73 | 1016.4 |
| 20260506083038 | 68 | 139 | 0.0 | 0.0 | 0.00 | 0.00 | 0.00 | 73 | 1016.0 |
| 20260506082534 | 68 | 161 | 0.9 | 0.9 | 0.00 | 0.00 | 0.00 | 73 | 1016.2 |
| 20260506082030 | 68 | 195 | 1.7 | 1.7 | 0.00 | 0.00 | 0.00 | 72 | 1016.2 |
| 20260506081529 | 68 | 169 | 0.9 | 0.9 | 0.00 | 0.00 | 0.00 | 71 | 1016.2 |
| 20260506081026 | 68 | 150 | 0.0 | 0.0 | 0.00 | 0.00 | 0.00 | 71 | 1016.2 |
| 20260506080523 | 68 | 197 | 2.6 | 1.7 | 0.00 | 0.00 | 0.00 | 71 | 1015.9 |
| 20260506073507 | 69 | 183 | 1.7 | 1.7 | 0.00 | 0.00 | 0.00 | 70 | 1015.7 |
| 20260506073004 | 69 | 183 | 2.6 | 4.3 | 0.00 | 0.00 | 0.00 | 70 | 1015.8 |
| 20260506072501 | 69 | 146 | 2.6 | 1.7 | 0.00 | 0.00 | 0.00 | 71 | 1015.9 |
| 20260506071959 | 68 | 180 | 2.6 | 1.7 | 0.00 | 0.00 | 0.00 | 72 | 1015.7 |
| 20260506071456 | 68 | 159 | 0.9 | 0.9 | 0.00 | 0.00 | 0.00 | 73 | 1016.1 |
| 20260506070953 | 68 | 162 | 0.9 | 1.7 | 0.00 | 0.00 | 0.00 | 73 | 1016.0 |
| 20260506070450 | 68 | 185 | 0.9 | 0.9 | 0.00 | 0.00 | 0.00 | 73 | 1016.1 |